FW5450 Antrobus UK current weather conditions

sailwx.info

Wind from 304

Air temperature 4.4° C
Dewpoint 3.1° C

Last reported at 2019-Nov-17 22:04 UTC.
Time now 2019-Nov-17 22:36 UTC

Location: N 53°19' W 002°32'.
View on Google Maps.

See reports from other nearby stations

  
Tides and Currents Weather Stations Pressure Air Temp Water Temp Dewpoint Dewpoint Depression Visibility Wind Speed Wind Dir Waves Ship Positions
date/time (UTC)wind fromknots sea level pressurealtimeterstation pressurevisibilityair tempwater tempwave heightnotes
2019-Nov-17 22:04 304 4.4
2019-Nov-17 21:59 299 4.4
2019-Nov-17 21:54 297 4.4
2019-Nov-17 21:49 300 4.4
2019-Nov-17 21:44 300 4.4
2019-Nov-17 21:39 302 4.4
2019-Nov-17 21:34 289 4.4
2019-Nov-17 21:29 295 4.4
2019-Nov-17 21:24 293 4.4
2019-Nov-17 21:18 313 5.0
2019-Nov-17 21:13 051 5.0
2019-Nov-17 21:08 051 5.6
2019-Nov-17 21:03 012 5.6
2019-Nov-17 20:58 352 5.6
2019-Nov-17 20:53 338 5.6
2019-Nov-17 20:48 004 5.6
2019-Nov-17 20:43 001 6.1
2019-Nov-17 20:38 330 6.1
2019-Nov-17 20:32 013 6.1
2019-Nov-17 20:27 295 6.1
2019-Nov-17 20:22 294 6.1
2019-Nov-17 20:17 304 6.1
2019-Nov-17 20:12 301 6.1
2019-Nov-17 20:07 302 6.1
2019-Nov-17 20:02 287 6.1
2019-Nov-17 19:57 302 6.1
2019-Nov-17 19:52 334 5.6
2019-Nov-17 19:47 342 5.6
2019-Nov-17 19:42 293 5.6
2019-Nov-17 19:37 346 5.6
2019-Nov-17 19:32 320 5.6
2019-Nov-17 19:27 339 5.6
2019-Nov-17 19:22 297 5.6
2019-Nov-17 19:17 304 5.6
2019-Nov-17 19:12 298 5.6
2019-Nov-17 19:07 277 5.0
2019-Nov-17 19:02 316 5.0
2019-Nov-17 18:57 305 5.0
2019-Nov-17 18:52 309 5.0
2019-Nov-17 18:47 299 5.0
2019-Nov-17 18:42 299 5.0
2019-Nov-17 18:37 300 5.0
2019-Nov-17 18:32 300 5.0
2019-Nov-17 18:27 300 5.6
2019-Nov-17 18:22 309 5.6
2019-Nov-17 18:17 321 5.6
2019-Nov-17 18:12 323 5.6
2019-Nov-17 18:07 299 5.6
2019-Nov-17 18:02 316 5.6
2019-Nov-17 17:57 316 6.1
2019-Nov-17 17:51 343 6.1
2019-Nov-17 17:46 338 6.1
2019-Nov-17 17:41 345 6.1
2019-Nov-17 17:36 333 6.1
2019-Nov-17 17:31 328 6.1
2019-Nov-17 17:26 320 6.1
2019-Nov-17 17:21 316 6.7
2019-Nov-17 17:16 328 6.7
2019-Nov-17 17:11 316 6.7
2019-Nov-17 17:06 003 6.7
2019-Nov-17 17:01 286 6.7
2019-Nov-17 16:56 330 6.7
2019-Nov-17 16:51 316 6.7
2019-Nov-17 16:46 300 6.7
2019-Nov-17 16:41 347 7.2
2019-Nov-17 16:36 325 7.2
2019-Nov-17 16:31 309 7.2
2019-Nov-17 16:26 314 7.2
2019-Nov-17 16:21 290 7.2
2019-Nov-17 16:16 309 7.2
2019-Nov-17 16:11 307 7.2
2019-Nov-17 16:06 299 7.2
2019-Nov-17 16:01 304 7.2
2019-Nov-17 15:56 296 7.2
2019-Nov-17 15:51 297 7.2
2019-Nov-17 15:46 305 7.2
2019-Nov-17 15:41 304 7.2
2019-Nov-17 15:36 7.2
2019-Nov-17 15:31 320 7.2
2019-Nov-17 15:26 320 7.2
2019-Nov-17 15:21 316 7.2
2019-Nov-17 15:16 343 7.2
2019-Nov-17 15:11 037 7.2
2019-Nov-17 15:06 323 7.2
2019-Nov-17 15:01 005 7.2
2019-Nov-17 14:56 297 7.2
2019-Nov-17 14:51 297 7.2
2019-Nov-17 14:46 316 7.8
2019-Nov-17 14:41 030 7.2
2019-Nov-17 14:36 334 7.2
2019-Nov-17 14:31 034 7.2
2019-Nov-17 14:26 315 7.2
2019-Nov-17 14:21 298 7.2
2019-Nov-17 14:16 022 7.2
2019-Nov-17 14:11 008 7.2
2019-Nov-17 14:06 337 7.2
2019-Nov-17 14:01 307 7.2
2019-Nov-17 13:55 292 7.2
2019-Nov-17 13:50 304 7.2
2019-Nov-17 13:45 006 7.2
2019-Nov-17 13:40 314 7.2
2019-Nov-17 13:35 337 7.2
2019-Nov-17 13:30 008 0 gusting 3 7.2
2019-Nov-17 13:25 356 0 gusting 3 7.2
2019-Nov-17 13:20 341 0 gusting 7 7.2
2019-Nov-17 13:15 347 0 gusting 7 7.8
2019-Nov-17 13:10 350 0 gusting 6 7.8
2019-Nov-17 13:05 003 0 gusting 6 7.8
2019-Nov-17 13:00 012 0 gusting 6 7.8
2019-Nov-17 12:55 255 0 gusting 6 7.8
2019-Nov-17 12:50 018 7.8
2019-Nov-17 12:45 320 7.8
2019-Nov-17 12:40 013 7.8
2019-Nov-17 12:35 041 7.8
2019-Nov-17 12:30 025 7.8
2019-Nov-17 12:25 306 7.8
2019-Nov-17 12:20 020 7.8
2019-Nov-17 12:15 356 7.8
2019-Nov-17 12:10 330 7.8
2019-Nov-17 12:05 338 7.8
2019-Nov-17 12:00 001 7.8
2019-Nov-17 11:58 334 7.2
2019-Nov-17 11:50 044 7.2
2019-Nov-17 11:45 031 7.2
2019-Nov-17 11:40 001 7.2
2019-Nov-17 11:35 316 7.2
2019-Nov-17 11:30 330 6.7
2019-Nov-17 11:25 006 6.7
2019-Nov-17 11:20 054 6.7
2019-Nov-17 11:14 339 6.7
2019-Nov-17 11:09 339 6.7
2019-Nov-17 11:05 012 6.7
2019-Nov-17 11:00 325 6.7
2019-Nov-17 10:54 009 6.7
2019-Nov-17 10:50 001 6.7
2019-Nov-17 10:44 321 6.7
2019-Nov-17 10:39 307 6.7
2019-Nov-17 10:35 298 6.7
2019-Nov-17 10:29 343 6.7
2019-Nov-17 10:24 336 6.1
2019-Nov-17 10:19 330 6.1
2019-Nov-17 10:14 298 6.1
2019-Nov-17 10:09 323 6.1
2019-Nov-17 10:04 292 6.1
2019-Nov-17 09:59 297 6.1
2019-Nov-17 09:54 353 6.1
2019-Nov-17 09:49 293 6.1
2019-Nov-17 09:44 306 6.1
2019-Nov-17 09:39 301 6.1
2019-Nov-17 09:34 299 6.1
2019-Nov-17 09:29 300 5.6
2019-Nov-17 09:24 300 5.6
2019-Nov-17 09:19 300 5.6
2019-Nov-17 09:14 298 5.6
2019-Nov-17 09:09 295 5.6
2019-Nov-17 09:04 291 5.0
2019-Nov-17 08:59 285 5.0
2019-Nov-17 08:54 285 5.0
2019-Nov-17 08:49 285 4.4
2019-Nov-17 08:44 285 4.4
2019-Nov-17 08:38 285 4.4
2019-Nov-17 08:33 285 4.4
2019-Nov-17 08:28 285 4.4
2019-Nov-17 08:23 285 4.4
2019-Nov-17 08:18 285 4.4
2019-Nov-17 08:13 285 4.4
2019-Nov-17 08:07 285 3.9
2019-Nov-17 08:02 285 3.9
2019-Nov-17 07:57 285 3.9
2019-Nov-17 07:52 285 3.9
2019-Nov-17 07:47 285 3.9
2019-Nov-17 07:42 285 3.9
2019-Nov-17 07:37 285 3.9
2019-Nov-17 07:32 285 4.4
2019-Nov-17 07:27 285 4.4
2019-Nov-17 07:21 285 4.4
2019-Nov-17 07:16 285 4.4
2019-Nov-17 07:11 285 4.4
2019-Nov-17 07:06 285 4.4
2019-Nov-17 07:01 285 3.9
2019-Nov-17 06:55 285 3.9
2019-Nov-17 06:50 285 3.9
2019-Nov-17 06:45 285 4.4
2019-Nov-17 06:39 285 4.4
2019-Nov-17 06:34 285 4.4
2019-Nov-17 06:29 285 4.4
2019-Nov-17 06:24 285 4.4
2019-Nov-17 06:19 285 4.4
2019-Nov-17 06:13 285 4.4
2019-Nov-17 06:08 285 4.4
2019-Nov-17 06:03 285 4.4
2019-Nov-17 05:57 285 4.4
2019-Nov-17 05:52 083 4.4
2019-Nov-17 05:47 086 4.4
2019-Nov-17 05:42 086 4.4
2019-Nov-17 05:37 086 4.4
2019-Nov-17 05:32 090 5.0
2019-Nov-17 05:27 090 4.4
2019-Nov-17 05:22 091 4.4
2019-Nov-17 05:17 090 4.4
2019-Nov-17 05:12 091 4.4
2019-Nov-17 05:07 090 4.4
2019-Nov-17 05:02 091 4.4
2019-Nov-17 04:57 091 4.4
2019-Nov-17 04:52 090 4.4
2019-Nov-17 04:47 090 4.4
2019-Nov-17 04:42 091 4.4
2019-Nov-17 04:37 091 4.4
2019-Nov-17 04:32 091 5.0
2019-Nov-17 04:27 090 5.0
2019-Nov-17 04:22 091 5.0
2019-Nov-17 04:16 091 5.0
2019-Nov-17 04:11 091 5.0
2019-Nov-17 04:06 090 5.0
2019-Nov-17 04:01 091 5.0
2019-Nov-17 03:56 090 5.0
2019-Nov-17 03:51 090 5.0
2019-Nov-17 03:46 091 5.0
2019-Nov-17 03:41 091 5.0
2019-Nov-17 03:36 090 5.0
2019-Nov-17 03:31 090 5.0
2019-Nov-17 03:26 090 5.0
2019-Nov-17 03:21 091 5.6
2019-Nov-17 03:16 090 5.6
2019-Nov-17 03:11 090 5.6
2019-Nov-17 03:06 292 5.6
2019-Nov-17 03:01 292 5.6
2019-Nov-17 02:56 293 5.6
2019-Nov-17 02:51 292 5.6
2019-Nov-17 02:46 292 5.6
2019-Nov-17 02:41 292 6.1
2019-Nov-17 02:36 292 6.1
2019-Nov-17 02:31 292 6.1
2019-Nov-17 02:26 292 6.1
2019-Nov-17 02:21 293 6.1
2019-Nov-17 02:16 292 6.1
2019-Nov-17 02:11 292 6.1
2019-Nov-17 02:06 292 6.1
2019-Nov-17 02:01 293 6.7
2019-Nov-17 01:56 292 6.7
2019-Nov-17 01:52 292 6.7
2019-Nov-17 01:48 292 6.7
2019-Nov-17 01:43 293 6.7
2019-Nov-17 01:36 292 6.7
2019-Nov-17 01:31 293 6.7
2019-Nov-17 01:26 293 6.7
2019-Nov-17 01:21 292 6.7
2019-Nov-17 01:16 292 6.7
2019-Nov-17 01:11 293 6.7
2019-Nov-17 01:06 293 6.7
2019-Nov-17 01:01 292 6.7
2019-Nov-17 00:55 293 6.7
2019-Nov-17 00:50 292 6.7
2019-Nov-17 00:45 292 6.7
2019-Nov-17 00:40 293 6.7
2019-Nov-17 00:35 293 6.7
2019-Nov-17 00:30 292 6.7
2019-Nov-17 00:25 293 6.7
2019-Nov-17 00:20 292 6.7
2019-Nov-17 00:15 292 6.7
2019-Nov-17 00:10 293 6.7
2019-Nov-17 00:05 292 6.7
2019-Nov-17 00:00 293 6.7
2019-Nov-16 23:55 293 6.7
2019-Nov-16 23:50 292 6.7
2019-Nov-16 23:45 293 6.7
2019-Nov-16 23:40 292 6.7
2019-Nov-16 23:35 293 6.7
2019-Nov-16 23:30 292 6.7
2019-Nov-16 23:25 293 6.7
2019-Nov-16 23:20 293 6.7
2019-Nov-16 23:15 293 6.7
2019-Nov-16 23:10 292 6.7
2019-Nov-16 23:05 292 7.2
2019-Nov-16 23:00 292 7.2
2019-Nov-16 22:55 291 7.2
2019-Nov-16 22:49 289 7.2
2019-Nov-16 22:44 297 7.2
2019-Nov-16 22:39 297 7.2
2019-Nov-16 22:34 298 7.2
2019-Nov-16 22:29 297 7.2
2019-Nov-16 22:24 297 7.2
2019-Nov-16 22:19 298 7.2
2019-Nov-16 22:14 298 7.2
2019-Nov-16 22:09 298 7.2
2019-Nov-16 22:04 298 7.2
2019-Nov-16 21:59 298 7.2
2019-Nov-16 21:54 296 7.2
2019-Nov-16 21:49 298 7.2
2019-Nov-16 21:44 297 7.2
2019-Nov-16 21:39 297 7.2
2019-Nov-16 21:34 300 7.2
2019-Nov-16 21:29 300 7.2
2019-Nov-16 21:24 302 7.2
2019-Nov-16 21:18 297 7.2
2019-Nov-16 21:13 297 7.2
2019-Nov-16 21:08 299 7.2
2019-Nov-16 21:03 291 7.2
2019-Nov-16 20:58 294 7.2
2019-Nov-16 20:53 297 7.2
2019-Nov-16 20:48 287 7.2
2019-Nov-16 20:43 281 7.2
2019-Nov-16 20:38 293 7.2
2019-Nov-16 20:33 292 7.2
2019-Nov-16 20:28 292 7.2
2019-Nov-16 20:23 299 7.2
2019-Nov-16 20:18 297 7.2
2019-Nov-16 20:13 297 7.2
2019-Nov-16 20:08 295 7.2
2019-Nov-16 20:03 295 7.2
2019-Nov-16 19:58 292 7.2
2019-Nov-16 19:53 283 7.2
2019-Nov-16 19:48 297 7.2
2019-Nov-16 19:42 294 7.2
2019-Nov-16 19:37 297 7.2
2019-Nov-16 19:32 300 7.2
2019-Nov-16 19:27 292 7.2
2019-Nov-16 19:22 292 7.2
2019-Nov-16 19:17 297 7.2
2019-Nov-16 19:12 298 7.2
2019-Nov-16 19:07 300 7.2
2019-Nov-16 19:02 300 7.2
2019-Nov-16 18:57 298 7.2
2019-Nov-16 18:52 299 7.2
2019-Nov-16 18:47 298 7.2
2019-Nov-16 18:42 292 7.2
2019-Nov-16 18:37 298 7.2
2019-Nov-16 18:32 297 7.2
2019-Nov-16 18:27 304 7.2
2019-Nov-16 18:22 297 7.2
2019-Nov-16 18:17 295 7.2
2019-Nov-16 18:12 294 7.2
2019-Nov-16 18:07 292 7.2
2019-Nov-16 18:02 298 7.2
2019-Nov-16 17:57 295 7.2
2019-Nov-16 17:52 298 7.2
2019-Nov-16 17:47 297 7.2
2019-Nov-16 17:41 300 7.2
2019-Nov-16 17:36 296 7.2
2019-Nov-16 17:31 297 7.2
2019-Nov-16 17:26 297 7.2
2019-Nov-16 17:21 295 7.2
2019-Nov-16 17:16 297 7.2
2019-Nov-16 17:11 297 7.2
2019-Nov-16 17:06 298 7.2
2019-Nov-16 17:01 295 7.2
2019-Nov-16 16:56 297 7.2
2019-Nov-16 16:51 298 7.8
2019-Nov-16 16:46 300 7.8
2019-Nov-16 16:41 304 7.8
2019-Nov-16 16:36 297 7.8
2019-Nov-16 16:31 290 7.8
2019-Nov-16 16:26 302 7.8
2019-Nov-16 16:21 297 7.8
2019-Nov-16 16:16 297 7.8
2019-Nov-16 16:11 299 7.8
2019-Nov-16 16:06 297 7.8
2019-Nov-16 16:01 299 7.8
2019-Nov-16 15:56 297 7.8
2019-Nov-16 15:51 297 7.8
2019-Nov-16 15:46 297 7.8
2019-Nov-16 15:41 293 7.8
2019-Nov-16 15:36 293 7.8
2019-Nov-16 15:31 293 7.8
2019-Nov-16 15:26 299 7.8
2019-Nov-16 15:21 300 7.8
2019-Nov-16 15:16 300 7.8
2019-Nov-16 15:11 300 7.8
2019-Nov-16 15:06 300 7.8
2019-Nov-16 15:01 297 7.8
2019-Nov-16 14:56 298 7.8
2019-Nov-16 14:51 297 7.8
2019-Nov-16 14:46 298 8.3
2019-Nov-16 14:41 293 8.3
2019-Nov-16 14:36 297 8.3
2019-Nov-16 14:31 297 8.3
2019-Nov-16 14:26 295 8.3
2019-Nov-16 14:20 298 8.3
2019-Nov-16 14:15 299 8.3
2019-Nov-16 14:10 300 8.3
2019-Nov-16 14:05 278 8.3
2019-Nov-16 14:00 297 8.3
2019-Nov-16 13:55 302 8.9
2019-Nov-16 13:50 300 8.9
2019-Nov-16 13:45 296 8.9
2019-Nov-16 13:40 297 8.3
2019-Nov-16 13:35 299 8.3
2019-Nov-16 13:30 292 8.3
2019-Nov-16 13:25 294 8.3
2019-Nov-16 13:20 298 8.3
2019-Nov-16 13:15 290 8.3
2019-Nov-16 13:10 300 8.3
2019-Nov-16 13:05 293 8.3
2019-Nov-16 13:00 296 8.3
2019-Nov-16 12:55 299 8.3
2019-Nov-16 12:50 295 8.3
2019-Nov-16 12:45 300 8.3
2019-Nov-16 12:35 299 0 gusting 5 8.3
2019-Nov-16 12:30 292 0 gusting 5 8.3
2019-Nov-16 12:25 299 8.3
2019-Nov-16 12:20 300 1 gusting 5 8.3
2019-Nov-16 12:15 295 1 gusting 5 8.3
2019-Nov-16 12:10 294 8.3
2019-Nov-16 12:05 298 8.3
2019-Nov-16 12:00 298 8.3
2019-Nov-16 11:55 299 8.3
2019-Nov-16 11:50 297 8.3
2019-Nov-16 11:45 298 8.3
2019-Nov-16 11:40 300 0 gusting 4 8.3
2019-Nov-16 11:35 304 8.3
2019-Nov-16 11:30 297 8.3
2019-Nov-16 11:25 301 8.3
2019-Nov-16 11:20 302 8.3
2019-Nov-16 11:14 304 8.3
2019-Nov-16 11:09 314 7.8
2019-Nov-16 11:04 297 7.8
2019-Nov-16 10:59 301 7.8
2019-Nov-16 10:54 300 7.8
2019-Nov-16 10:49 302 7.8
2019-Nov-16 10:44 300 7.2
2019-Nov-16 10:39 302 7.2
2019-Nov-16 10:34 301 7.2
2019-Nov-16 10:29 297 7.2
2019-Nov-16 10:24 300 7.2
2019-Nov-16 10:19 295 7.2
2019-Nov-16 10:14 298 7.2
2019-Nov-16 10:09 298 7.2
2019-Nov-16 10:04 297 6.7
2019-Nov-16 09:59 301 6.7
2019-Nov-16 09:54 299 6.7
2019-Nov-16 09:49 293 6.7
2019-Nov-16 09:44 297 6.7
2019-Nov-16 09:39 293 6.7
2019-Nov-16 09:34 293 6.7
2019-Nov-16 09:29 292 6.7
2019-Nov-16 09:24 297 6.7
2019-Nov-16 09:19 297 6.7
2019-Nov-16 09:14 299 6.1
2019-Nov-16 09:09 300 6.1
2019-Nov-16 09:03 300 5.6
2019-Nov-16 08:58 300 5.6
2019-Nov-16 08:53 297 5.6
2019-Nov-16 08:48 297 5.6
2019-Nov-16 08:43 297 5.0
2019-Nov-16 08:38 297 5.0
2019-Nov-16 08:33 304 5.0
2019-Nov-16 08:28 300 5.0
2019-Nov-16 08:23 299 4.4
2019-Nov-16 08:18 300 4.4
2019-Nov-16 08:13 316 5.0
2019-Nov-16 08:07 316 5.0
2019-Nov-16 08:02 309 5.0
2019-Nov-16 07:57 316 5.0
2019-Nov-16 07:52 295 5.0
2019-Nov-16 07:47 329 5.0
2019-Nov-16 07:42 295 5.0
2019-Nov-16 07:37 276 5.6
2019-Nov-16 07:32 307 5.6
2019-Nov-16 07:27 304 5.6
2019-Nov-16 07:22 301 5.6
2019-Nov-16 07:17 030 5.6
2019-Nov-16 07:12 300 5.6
2019-Nov-16 07:07 315 5.6
2019-Nov-16 07:02 314 5.6
2019-Nov-16 06:57 343 5.6
2019-Nov-16 06:52 316 5.6
2019-Nov-16 06:47 001 5.6
2019-Nov-16 06:41 006 5.6
2019-Nov-16 06:36 335 0 gusting 6 5.6
2019-Nov-16 06:31 307 0 gusting 5 5.6
2019-Nov-16 06:26 353 0 gusting 6 5.6
2019-Nov-16 06:21 359 0 gusting 6 5.6
2019-Nov-16 06:16 279 0 gusting 9 6.1
2019-Nov-16 06:11 036 0 gusting 9 6.1
2019-Nov-16 06:06 339 0 gusting 7 6.1
2019-Nov-16 06:01 358 0 gusting 7 6.1
2019-Nov-16 05:56 306 1 gusting 6 6.1
2019-Nov-16 05:51 006 0 gusting 6 6.1
2019-Nov-16 05:46 354 0 gusting 6 6.1
2019-Nov-16 05:41 325 0 gusting 6 6.1
2019-Nov-16 05:36 309 0 gusting 6 6.1
2019-Nov-16 05:31 302 0 gusting 5 6.1
2019-Nov-16 05:26 354 6.1
2019-Nov-16 05:21 293 0 gusting 6 6.1
2019-Nov-16 05:16 311 1 gusting 7 6.1
2019-Nov-16 05:11 311 0 gusting 7 6.1
2019-Nov-16 05:06 332 0 gusting 6 6.1
2019-Nov-16 05:01 304 0 gusting 6 6.1
2019-Nov-16 04:56 302 0 gusting 6 6.1
2019-Nov-16 04:51 304 0 gusting 7 6.1
2019-Nov-16 04:46 297 1 gusting 7 6.1
2019-Nov-16 04:41 311 0 gusting 6 6.1
2019-Nov-16 04:36 301 0 gusting 6 6.7
2019-Nov-16 04:31 306 0 gusting 5 6.7
2019-Nov-16 04:26 300 0 gusting 4 6.7
2019-Nov-16 04:21 309 0 gusting 5 6.7
2019-Nov-16 04:16 013 1 gusting 9 6.7
2019-Nov-16 04:11 296 1 gusting 9 6.7
2019-Nov-16 04:06 316 0 gusting 5 6.7
2019-Nov-16 04:01 323 0 gusting 6 6.7
2019-Nov-16 03:56 006 0 gusting 6 6.7
2019-Nov-16 03:51 295 0 gusting 4 6.7
2019-Nov-16 03:46 316 0 gusting 5 6.7
2019-Nov-16 03:41 200 0 gusting 5 6.7
2019-Nov-16 03:36 304 0 gusting 6 6.7
2019-Nov-16 03:31 248 1 gusting 6 6.7
2019-Nov-16 03:26 301 1 gusting 9 6.7
2019-Nov-16 03:21 305 0 gusting 9 6.7
2019-Nov-16 03:16 330 0 gusting 5 6.1
2019-Nov-16 03:11 316 0 gusting 5 6.1
2019-Nov-16 03:06 304 0 gusting 6 6.1
2019-Nov-16 03:01 283 1 gusting 6 6.7
2019-Nov-16 02:56 350 1 gusting 8 6.7
2019-Nov-16 02:51 278 1 gusting 8 6.7
2019-Nov-16 02:46 070 0 gusting 5 6.7
2019-Nov-16 02:41 330 1 gusting 7 6.7
2019-Nov-16 02:36 260 1 gusting 8 6.7
2019-Nov-16 02:31 355 0 gusting 8 6.7
2019-Nov-16 02:26 304 0 gusting 4 6.7
2019-Nov-16 02:21 283 1 gusting 8 6.1
2019-Nov-16 02:16 001 1 gusting 8 6.1
2019-Nov-16 02:11 033 0 gusting 8 6.1
2019-Nov-16 02:06 313 0 gusting 6 6.1
2019-Nov-16 02:01 314 1 gusting 6 6.1
2019-Nov-16 01:56 304 0 gusting 6 6.1
2019-Nov-16 01:51 330 0 gusting 6 6.1
2019-Nov-16 01:46 020 0 gusting 6 6.1
2019-Nov-16 01:41 353 1 gusting 6 6.1
2019-Nov-16 01:36 330 0 gusting 6 6.1
2019-Nov-16 01:31 348 0 gusting 6 6.1
2019-Nov-16 01:26 250 1 gusting 11 6.1
2019-Nov-16 01:21 304 2 gusting 11 6.1
2019-Nov-16 01:16 245 2 gusting 7 6.1
2019-Nov-16 01:11 311 2 gusting 7 6.1
2019-Nov-16 01:06 300 1 gusting 7 6.1
2019-Nov-16 01:01 015 2 gusting 7 6.1
2019-Nov-16 00:56 301 2 gusting 8 6.1
2019-Nov-16 00:51 316 3 gusting 8 6.1
2019-Nov-16 00:46 288 4 gusting 7 6.1
2019-Nov-16 00:41 306 3 gusting 7 6.1
2019-Nov-16 00:36 311 2 gusting 8 6.1
2019-Nov-16 00:31 006 2 gusting 8 6.1
2019-Nov-16 00:26 297 2 gusting 8 5.6
2019-Nov-16 00:21 301 3 gusting 8 5.6
2019-Nov-16 00:16 306 2 gusting 6 5.6
2019-Nov-16 00:11 307 1 gusting 6 5.6
2019-Nov-16 00:06 293 0 gusting 6 5.6
2019-Nov-16 00:01 299 1 gusting 6 5.6
2019-Nov-15 23:56 301 1 gusting 6 5.6
2019-Nov-15 23:51 300 0 gusting 6 5.6
2019-Nov-15 23:46 297 0 gusting 6 5.6
2019-Nov-15 23:41 300 5.6
2019-Nov-15 23:36 291 0 gusting 5 5.6
2019-Nov-15 23:31 300 1 gusting 6 5.6
2019-Nov-15 23:26 295 2 gusting 6 5.6
2019-Nov-15 23:21 297 1 gusting 6 5.6
2019-Nov-15 23:16 300 0 gusting 6 5.6
2019-Nov-15 23:11 302 0 gusting 6 5.6
2019-Nov-15 23:05 304 0 gusting 3 5.6
2019-Nov-15 23:00 286 0 gusting 6 5.6
2019-Nov-15 22:56 297 0 gusting 6 5.6
2019-Nov-15 22:50 302 0 gusting 6 5.6
2019-Nov-15 22:45 311 0 gusting 6 5.6
2019-Nov-15 22:40 300 0 gusting 5 5.6
2019-Nov-15 22:35 314 0 gusting 6 5.6
2019-Nov-15 22:30 301 0 gusting 7 5.6
2019-Nov-15 22:25 313 1 gusting 8 5.6
2019-Nov-15 22:20 307 1 gusting 8 5.6
2019-Nov-15 22:15 005 1 gusting 9 5.6
2019-Nov-15 22:10 343 1 gusting 9 5.6
2019-Nov-15 22:05 332 1 gusting 8 5.6
2019-Nov-15 22:00 345 0 gusting 8 5.6